Location: Seattle
(47.6064°N, 122.3308°W)
Time: 20:41:04
(UTC-07:00)

ITUPSAT 1 - Pass Details

Date: 02 April 2023
Orbit: 697 x 710 km, 98.5° (Epoch: 29 May)

Event Time Altitude Azimuth Distance (km) Brightness Sun altitude
Rises 21:50:20 0° 20° (NNE) 3,120 ? -21.0°
Reaches altitude 10° 21:52:43 10° 27° (NNE) 2,195 ? -21.4°
Enters shadow 21:56:21 37° 69° (ENE) 1,096 ? -21.9°
